EW3591 Weather Reports


Display with metric or nautical units.
time (UTC)temp
F
wind
direction
speed
MPH
gust
MPH
rain 1hr
in
rain 24hr
in
rain mn
in
humidity
%
barometer
mb
20260903233154 75 352 0.0 2.0 0.06 0.12 0.06 93 1012.9
20260903232954 75 352 0.0 2.0 0.06 0.12 0.06 94 1012.8
20260903232753 75 352 0.0 2.0 0.06 0.12 0.06 94 1012.9
20260903232553 75 352 0.0 2.0 0.06 0.12 0.06 94 1012.9
20260903232353 75 352 0.0 2.0 0.06 0.12 0.06 95 1012.9
20260903232153 75 352 0.0 1.0 0.06 0.12 0.06 95 1012.8
20260903231952 76 352 0.0 1.0 0.06 0.12 0.06 96 1012.7
20260903231752 76 0 0.0 1.0 0.06 0.12 0.06 95 1012.7
20260903231552 76 0 0.0 1.0 0.06 0.12 0.06 96 1012.7
20260903231351 76 0 0.0 1.0 0.06 0.12 0.06 95 1012.7
20260903231151 76 352 0.0 2.0 0.06 0.12 0.06 95 1012.8
20260903230951 76 352 0.0 2.0 0.06 0.12 0.06 94 1012.8
20260903230750 76 352 0.0 2.0 0.06 0.12 0.06 94 1012.8
20260903230550 76 352 0.0 2.0 0.06 0.12 0.06 94 1012.8
20260903230350 76 138 0.0 2.0 0.06 0.12 0.06 94 1012.9
20260903230149 76 138 0.0 1.0 0.06 0.12 0.06 93 1013.1
20260903225949 76 138 0.0 1.0 0.06 0.36 0.06 92 1013.0
20260903225749 76 138 0.0 4.0 0.06 0.36 0.06 92 1013.0
20260903225549 77 138 0.0 4.0 0.06 0.36 0.06 91 1012.9
20260903225348 77 138 0.0 4.0 0.06 0.36 0.06 90 1012.9
20260903225148 78 143 1.0 4.0 0.06 0.36 0.06 89 1013.0
20260903224948 78 120 1.0 4.0 0.06 0.36 0.06 87 1013.1
20260903224747 79 11 1.0 3.0 0.04 0.34 0.04 85 1013.2
20260903224547 79 344 0.0 3.0 0.00 0.30 0.00 84 1013.2
20260903224347 80 285 1.0 3.0 0.00 0.30 0.00 83 1013.2
20260903224146 80 167 0.0 3.0 0.00 0.30 0.00 84 1013.1
20260903223946 80 144 0.0 2.0 0.00 0.30 0.00 83 1013.1
20260903223746 80 144 0.0 2.0 0.00 0.30 0.00 83 1013.1
20260903223545 80 144 0.0 2.0 0.00 0.30 0.00 82 1013.0
20260903223345 80 144 0.0 2.0 0.00 0.30 0.00 82 1013.0
20260903223145 80 143 0.0 2.0 0.00 0.30 0.00 82 1012.9
20260903222944 80 130 0.0 2.0 0.00 0.30 0.00 82 1012.9
20260903222744 80 0 0.0 1.0 0.00 0.30 0.00 81 1012.9
20260903222544 80 0 0.0 1.0 0.00 0.30 0.00 81 1012.9
20260903222344 80 46 0.0 1.0 0.00 0.30 0.00 81 1012.9
20260903222143 80 46 0.0 4.0 0.00 0.30 0.00 80 1012.9
20260903221943 80 46 0.0 4.0 0.00 0.30 0.00 80 1012.8
20260903221743 80 46 0.0 4.0 0.00 0.30 0.00 80 1012.8
20260903221542 80 44 1.0 4.0 0.00 0.30 0.00 80 1012.8
20260903221342 80 138 1.0 4.0 0.00 0.30 0.00 80 1012.8
20260903221142 80 172 0.0 4.0 0.00 0.30 0.00 81 1012.9
20260903220941 80 106 0.0 4.0 0.00 0.30 0.00 80 1012.9
20260903220741 81 93 0.0 4.0 0.00 0.30 0.00 80 1013.0
20260903220541 81 93 0.0 4.0 0.00 0.30 0.00 80 1013.0
20260903220340 81 169 1.0 4.0 0.00 0.30 0.00 80 1013.0
20260903220140 81 338 0.0 2.0 0.00 0.30 0.00 80 1013.0
20260903215940 81 3 0.0 2.0 0.00 0.30 0.00 79 1013.0
20260903215739 81 28 1.0 2.0 0.00 0.30 0.00 80 1012.9
20260903215539 81 324 1.0 2.0 0.00 0.30 0.00 79 1012.9
20260903215339 81 297 0.0 2.0 0.00 0.30 0.00 80 1012.8
20260903215139 82 297 0.0 2.0 0.00 0.30 0.00 80 1012.8
20260903214938 81 297 0.0 2.0 0.00 0.30 0.00 80 1012.8
20260903214738 82 294 0.0 2.0 0.00 0.30 0.00 80 1012.7
20260903214538 82 134 0.0 2.0 0.00 0.30 0.00 79 1012.7
20260903214337 82 112 0.0 2.0 0.00 0.30 0.00 79 1012.6
20260903214137 82 72 1.0 2.0 0.00 0.30 0.00 79 1012.6
20260903213937 82 24 0.0 3.0 0.00 0.30 0.00 79 1012.6
20260903213736 82 331 0.0 3.0 0.00 0.30 0.00 79 1012.6
20260903213536 82 263 0.0 3.0 0.00 0.30 0.00 79 1012.6
20260903213336 82 260 0.0 3.0 0.00 0.30 0.00 79 1012.7
20260903213135 82 162 1.0 3.0 0.00 0.30 0.00 79 1012.7
20260903212935 82 131 0.0 6.0 0.00 0.30 0.00 78 1012.8
20260903212735 82 131 0.0 6.0 0.00 0.30 0.00 78 1012.8
20260903212534 82 131 0.0 6.0 0.00 0.30 0.00 78 1012.7
20260903212334 82 131 1.0 6.0 0.00 0.30 0.00 78 1012.8
20260903212134 82 71 1.0 6.0 0.00 0.30 0.00 78 1012.8
20260903211934 82 72 0.0 4.0 0.00 0.30 0.00 78 1012.7
20260903211733 82 65 1.0 4.0 0.00 0.30 0.00 77 1012.7
20260903211533 82 44 1.0 4.0 0.00 0.30 0.00 77 1012.7
20260903211333 82 52 0.0 4.0 0.00 0.30 0.00 77 1012.5
20260903211132 82 41 1.0 4.0 0.00 0.30 0.00 76 1012.4
20260903210932 82 257 1.0 4.0 0.00 0.30 0.00 77 1012.3
20260903210732 83 352 1.0 4.0 0.00 0.30 0.00 76 1012.4
20260903210531 83 7 1.0 4.0 0.00 0.30 0.00 76 1012.5
20260903210331 83 54 1.0 4.0 0.00 0.30 0.00 76 1012.4
20260903210131 83 210 0.0 2.0 0.00 0.30 0.00 76 1012.6
20260903205930 83 40 0.0 2.0 0.00 0.30 0.00 76 1012.6
20260903205730 83 24 0.0 2.0 0.00 0.30 0.00 75 1012.6
20260903205530 83 43 0.0 2.0 0.00 0.30 0.00 76 1012.5
20260903205330 83 84 0.0 2.0 0.00 0.30 0.00 76 1012.4
20260903205129 83 84 0.0 2.0 0.00 0.30 0.00 76 1012.4
20260903204929 83 83 0.0 3.0 0.00 0.30 0.00 76 1012.4
20260903204729 83 82 0.0 4.0 0.00 0.30 0.00 76 1012.3
20260903204528 83 76 0.0 4.0 0.00 0.30 0.00 76 1012.3
20260903204328 83 36 0.0 4.0 0.00 0.30 0.00 76 1012.3
20260903204128 83 25 1.0 4.0 0.00 0.30 0.00 76 1012.3
20260903203927 84 38 1.0 4.0 0.00 0.30 0.00 75 1012.5
20260903203727 84 96 1.0 3.0 0.00 0.30 0.00 75 1012.6
20260903203527 84 109 0.0 3.0 0.00 0.30 0.00 76 1012.6
20260903203326 84 106 0.0 2.0 0.00 0.30 0.00 76 1012.7
20260903203126 84 110 1.0 2.0 0.00 0.30 0.00 76 1012.7
20260903202926 84 274 1.0 2.0 0.00 0.30 0.00 76 1012.7
20260903202725 84 271 1.0 2.0 0.00 0.30 0.00 75 1012.7
20260903202525 84 269 0.0 3.0 0.00 0.30 0.00 75 1012.9
20260903202325 84 266 1.0 3.0 0.00 0.30 0.00 76 1012.8
20260903202125 84 132 1.0 3.0 0.00 0.30 0.00 76 1012.7
20260903201924 84 84 1.0 3.0 0.00 0.30 0.00 75 1012.7
20260903201724 84 27 1.0 3.0 0.00 0.30 0.00 75 1012.7
20260903201524 84 21 1.0 3.0 0.00 0.30 0.00 75 1012.7
20260903201323 84 320 1.0 3.0 0.00 0.30 0.00 75 1012.7
20260903201123 84 325 1.0 3.0 0.00 0.30 0.00 75 1012.7
20260903200923 84 70 1.0 4.0 0.00 0.30 0.00 75 1012.7
20260903200722 84 151 1.0 4.0 0.00 0.30 0.00 76 1012.7
20260903200522 84 188 1.0 4.0 0.00 0.30 0.00 76 1012.7
20260903200322 84 126 1.0 4.0 0.00 0.30 0.00 75 1012.8
20260903200121 84 153 1.0 4.0 0.00 0.30 0.00 75 1012.9
20260903195921 84 151 1.0 4.0 0.00 0.30 0.00 75 1012.9
20260903195721 84 165 1.0 4.0 0.00 0.30 0.00 75 1012.8
20260903195520 84 182 1.0 6.0 0.00 0.30 0.00 75 1012.8
20260903195320 84 243 1.0 6.0 0.00 0.30 0.00 75 1012.8
20260903195120 84 221 1.0 6.0 0.00 0.30 0.00 75 1012.9
20260903194920 84 45 2.0 6.0 0.00 0.30 0.00 75 1013.0
20260903194719 84 360 2.0 6.0 0.00 0.30 0.00 75 1013.0
20260903194519 84 225 1.0 5.0 0.00 0.30 0.00 75 1013.0
20260903194319 84 153 0.0 5.0 0.00 0.30 0.00 74 1013.0
20260903194118 84 101 1.0 5.0 0.00 0.30 0.00 74 1013.1
20260903193918 84 3 2.0 5.0 0.00 0.30 0.00 74 1013.2
20260903193718 85 32 1.0 4.0 0.00 0.30 0.00 74 1013.3
20260903193517 84 112 1.0 4.0 0.00 0.30 0.00 74 1013.3
20260903193317 84 15 1.0 7.0 0.00 0.30 0.00 75 1013.3
20260903193117 84 283 1.0 7.0 0.00 0.30 0.00 75 1013.2
20260903192916 84 127 1.0 7.0 0.00 0.30 0.00 74 1013.3
20260903192716 84 129 2.0 7.0 0.00 0.30 0.00 75 1013.3
20260903192516 84 226 2.0 7.0 0.00 0.30 0.00 75 1013.3
20260903192315 84 246 1.0 6.0 0.00 0.30 0.00 75 1013.4
20260903192115 84 263 1.0 6.0 0.00 0.30 0.00 75 1013.4
20260903191915 84 248 2.0 6.0 0.00 0.30 0.00 75 1013.3
20260903191715 84 234 1.0 6.0 0.00 0.30 0.00 75 1013.2
20260903191514 84 252 1.0 6.0 0.00 0.30 0.00 75 1013.3
20260903191314 84 240 2.0 6.0 0.00 0.30 0.00 75 1013.2
20260903191114 84 246 2.0 6.0 0.00 0.30 0.00 75 1013.3
20260903190913 84 290 1.0 4.0 0.00 0.30 0.00 75 1013.2
20260903190713 84 236 2.0 9.0 0.00 0.30 0.00 75 1013.2
20260903190513 85 166 2.0 9.0 0.00 0.30 0.00 74 1013.1
20260903190312 85 215 2.0 9.0 0.00 0.30 0.00 75 1013.1
20260903190112 85 233 2.0 9.0 0.00 0.30 0.00 74 1013.2
20260903185912 85 209 2.0 9.0 0.00 0.30 0.00 74 1013.2
20260903185711 85 172 2.0 6.0 0.00 0.30 0.00 75 1013.2
20260903185511 85 213 2.0 6.0 0.00 0.30 0.00 75 1013.2
20260903185311 85 241 1.0 5.0 0.00 0.30 0.00 75 1013.3
20260903185110 85 227 2.0 5.0 0.00 0.30 0.00 75 1013.3
20260903184910 85 224 2.0 4.0 0.00 0.30 0.00 75 1013.3
20260903184710 85 249 1.0 5.0 0.00 0.30 0.00 75 1013.4
20260903184509 85 247 2.0 5.0 0.00 0.30 0.00 75 1013.4
20260903184309 85 127 1.0 5.0 0.00 0.30 0.00 75 1013.4
20260903184109 84 141 2.0 5.0 0.00 0.30 0.00 75 1013.4
20260903183909 84 139 2.0 5.0 0.00 0.30 0.00 75 1013.4
20260903183709 84 137 0.0 4.0 0.00 0.30 0.00 76 1013.4
20260903183508 84 204 1.0 4.0 0.00 0.30 0.00 76 1013.4
20260903183308 84 231 2.0 5.0 0.00 0.30 0.00 76 1013.4
20260903183107 84 245 2.0 5.0 0.00 0.30 0.00 76 1013.4
20260903182907 84 178 2.0 5.0 0.00 0.30 0.00 76 1013.4
20260903182707 84 194 2.0 5.0 0.00 0.30 0.00 76 1013.5
20260903182506 84 153 1.0 5.0 0.00 0.30 0.00 75 1013.5
20260903182307 84 331 1.0 5.0 0.00 0.30 0.00 75 1013.5
20260903182106 85 290 1.0 5.0 0.00 0.30 0.00 74 1013.5
20260903181905 85 152 1.0 5.0 0.00 0.30 0.00 75 1013.5
20260903181705 85 221 2.0 5.0 0.00 0.30 0.00 75 1013.4
20260903181505 85 232 2.0 5.0 0.00 0.30 0.00 74 1013.4
20260903181305 85 133 1.0 11.0 0.00 0.30 0.00 75 1013.4
20260903181104 85 126 2.0 11.0 0.00 0.30 0.00 74 1013.4
20260903180904 85 105 2.0 11.0 0.00 0.30 0.00 74 1013.4
20260903180704 85 194 3.0 11.0 0.00 0.30 0.00 73 1013.4
20260903180503 85 194 3.0 11.0 0.00 0.30 0.00 73 1013.5
20260903180303 85 190 4.0 9.0 0.00 0.30 0.00 73 1013.5
20260903175902 85 322 2.0 6.0 0.00 0.30 0.00 73 1013.5
20260903175702 85 283 2.0 6.0 0.00 0.30 0.00 73 1013.5
20260903175502 85 296 1.0 6.0 0.00 0.30 0.00 74 1013.5
20260903175301 85 52 2.0 6.0 0.00 0.30 0.00 74 1013.4
20260903175101 85 68 1.0 6.0 0.00 0.30 0.00 75 1013.5
20260903174901 85 190 2.0 6.0 0.00 0.30 0.00 75 1013.6
20260903174700 85 234 1.0 5.0 0.00 0.30 0.00 75 1013.5
20260903174500 85 233 1.0 5.0 0.00 0.30 0.00 76 1013.5
20260903174300 85 233 1.0 6.0 0.00 0.30 0.00 74 1013.5
20260903174059 85 65 2.0 6.0 0.00 0.30 0.00 73 1013.6
20260903173859 85 140 2.0 6.0 0.00 0.30 0.00 74 1013.6
20260903173659 85 176 2.0 6.0 0.00 0.30 0.00 75 1013.5
20260903173459 85 203 3.0 6.0 0.00 0.30 0.00 74 1013.5
20260903173258 85 273 2.0 5.0 0.00 0.30 0.00 74 1013.5
20260903173058 85 317 1.0 5.0 0.00 0.30 0.00 74 1013.4
20260903172858 85 224 0.0 5.0 0.00 0.30 0.00 75 1013.4
20260903172657 85 220 1.0 5.0 0.00 0.30 0.00 75 1013.6
20260903172457 85 179 2.0 5.0 0.00 0.30 0.00 74 1013.6
20260903172257 85 218 2.0 6.0 0.00 0.30 0.00 74 1013.6
20260903172056 85 226 2.0 6.0 0.00 0.30 0.00 74 1013.5
20260903171856 85 213 2.0 6.0 0.00 0.30 0.00 74 1013.5
20260903171656 85 202 2.0 6.0 0.00 0.30 0.00 74 1013.6
20260903171455 85 171 2.0 6.0 0.00 0.30 0.00 74 1013.6
20260903171255 85 220 2.0 4.0 0.00 0.30 0.00 73 1013.6
20260903171055 85 239 2.0 4.0 0.00 0.30 0.00 74 1013.6
20260903170855 85 154 1.0 4.0 0.00 0.30 0.00 74 1013.7
20260903170654 85 182 1.0 4.0 0.00 0.30 0.00 74 1013.7
20260903170454 85 198 1.0 4.0 0.00 0.30 0.00 75 1013.7
20260903170254 84 165 1.0 4.0 0.00 0.30 0.00 75 1013.8
20260903170053 84 124 1.0 6.0 0.00 0.30 0.00 75 1013.8
20260903165853 85 114 2.0 6.0 0.00 0.30 0.00 74 1013.9
20260903165653 85 222 2.0 6.0 0.00 0.30 0.00 74 1013.9
20260903165452 85 194 3.0 6.0 0.00 0.30 0.00 75 1013.9
20260903165252 85 207 2.0 6.0 0.00 0.30 0.00 75 1013.8
20260903165052 85 195 1.0 5.0 0.00 0.30 0.00 76 1013.8
20260903164851 85 240 2.0 5.0 0.00 0.30 0.00 76 1013.8
20260903164651 85 241 1.0 6.0 0.00 0.30 0.00 77 1013.8
20260903164451 85 133 1.0 6.0 0.00 0.30 0.00 76 1013.8
20260903164250 84 216 2.0 6.0 0.00 0.30 0.00 76 1013.9
20260903164050 84 247 2.0 6.0 0.00 0.30 0.00 76 1013.9
20260903163850 84 236 1.0 6.0 0.00 0.30 0.00 77 1013.9
20260903163650 84 229 2.0 5.0 0.00 0.30 0.00 78 1014.0
20260903163449 84 213 2.0 5.0 0.00 0.30 0.00 78 1013.9
20260903163249 84 205 2.0 5.0 0.00 0.30 0.00 78 1013.9
20260903163049 84 221 2.0 5.0 0.00 0.30 0.00 78 1013.9
20260903162848 84 213 2.0 5.0 0.00 0.30 0.00 78 1013.9
20260903162648 84 231 1.0 5.0 0.00 0.30 0.00 78 1013.8
20260903162448 84 219 2.0 5.0 0.00 0.30 0.00 78 1013.7
20260903162247 84 237 2.0 5.0 0.00 0.30 0.00 77 1013.7
20260903162047 84 188 1.0 5.0 0.00 0.30 0.00 77 1013.8
20260903161847 84 177 2.0 5.0 0.00 0.30 0.00 77 1013.9
20260903161646 84 194 2.0 5.0 0.00 0.30 0.00 78 1013.7
20260903161446 84 222 2.0 5.0 0.00 0.30 0.00 78 1013.7
20260903161246 84 245 1.0 6.0 0.00 0.30 0.00 79 1013.7
20260903161045 83 245 1.0 6.0 0.00 0.30 0.00 79 1013.8
20260903160845 83 227 1.0 6.0 0.00 0.30 0.00 79 1013.9
20260903160645 83 231 2.0 6.0 0.00 0.30 0.00 79 1013.9
20260903160445 83 245 2.0 6.0 0.00 0.30 0.00 80 1013.9
20260903160244 82 250 1.0 5.0 0.00 0.30 0.00 80 1013.9
20260903160044 82 200 2.0 5.0 0.00 0.30 0.00 80 1013.9
20260903155844 82 157 2.0 5.0 0.00 0.35 0.00 80 1013.9
20260903155643 83 231 2.0 5.0 0.00 0.35 0.00 80 1014.0
20260903155443 83 265 1.0 5.0 0.00 0.35 0.00 80 1014.0
20260903155243 83 228 2.0 5.0 0.00 0.35 0.00 79 1014.0
20260903155042 83 246 1.0 5.0 0.00 0.35 0.00 80 1014.1
20260903154842 82 227 1.0 5.0 0.00 0.35 0.00 80 1014.1
20260903154642 82 227 2.0 5.0 0.00 0.35 0.00 80 1014.1
20260903154442 82 219 2.0 5.0 0.00 0.35 0.00 80 1014.1
20260903154241 82 234 2.0 4.0 0.00 0.35 0.00 80 1014.1
20260903154041 82 265 1.0 6.0 0.00 0.35 0.00 79 1014.1
20260903153841 82 241 1.0 6.0 0.00 0.35 0.00 78 1014.1
20260903153640 82 225 1.0 6.0 0.00 0.35 0.00 78 1014.1
20260903153440 82 238 2.0 6.0 0.00 0.35 0.00 79 1014.2
20260903153240 82 223 3.0 6.0 0.00 0.35 0.00 79 1014.1
20260903153039 82 239 2.0 6.0 0.00 0.35 0.00 79 1014.1
20260903152839 82 242 2.0 5.0 0.00 0.35 0.00 80 1014.1
20260903152639 82 243 1.0 4.0 0.00 0.35 0.00 80 1014.0
20260903152438 82 234 1.0 4.0 0.00 0.35 0.00 81 1014.0
20260903152238 81 236 1.0 4.0 0.00 0.35 0.00 81 1013.9
20260903152038 81 231 2.0 4.0 0.00 0.35 0.00 82 1013.9
20260903151837 81 232 2.0 4.0 0.00 0.35 0.00 81 1014.0
20260903151637 81 234 1.0 4.0 0.00 0.35 0.00 82 1014.1
20260903151437 81 224 0.0 5.0 0.00 0.35 0.00 82 1014.1
20260903151236 80 227 1.0 6.0 0.00 0.35 0.00 82 1014.1
20260903151036 80 224 2.0 6.0 0.00 0.35 0.00 81 1014.1
20260903150836 80 211 2.0 6.0 0.00 0.35 0.00 81 1014.1
20260903150636 81 213 2.0 6.0 0.00 0.35 0.00 80 1014.2
20260903150435 81 233 2.0 6.0 0.00 0.35 0.00 81 1014.2
20260903150235 81 228 2.0 5.0 0.00 0.35 0.00 81 1014.1
20260903150035 80 239 0.0 4.0 0.00 0.35 0.00 82 1014.2
20260903145834 80 202 1.0 4.0 0.00 0.35 0.00 82 1014.2
20260903145634 80 188 1.0 4.0 0.00 0.35 0.00 82 1014.2
20260903145434 80 183 1.0 4.0 0.00 0.35 0.00 82 1014.2
20260903145233 80 209 1.0 5.0 0.00 0.35 0.00 82 1014.2
20260903145033 80 201 1.0 5.0 0.00 0.35 0.00 82 1014.1
20260903144833 80 226 1.0 5.0 0.00 0.35 0.00 83 1014.1
20260903144632 79 224 2.0 5.0 0.00 0.35 0.00 83 1014.2
20260903144432 79 217 1.0 4.0 0.00 0.35 0.00 84 1014.2
20260903144232 79 187 1.0 4.0 0.00 0.35 0.00 84 1014.2
20260903144031 78 183 0.0 4.0 0.00 0.35 0.00 84 1014.2
20260903143831 78 195 0.0 4.0 0.00 0.35 0.00 84 1014.1
20260903143631 78 191 1.0 4.0 0.00 0.35 0.00 84 1014.1
20260903143431 77 211 1.0 4.0 0.00 0.35 0.00 85 1014.1
20260903143230 77 223 2.0 4.0 0.00 0.35 0.00 84 1014.1
20260903143030 77 212 2.0 4.0 0.00 0.35 0.00 85 1014.1
20260903142830 77 244 1.0 4.0 0.00 0.35 0.00 86 1014.1
20260903142629 77 248 1.0 4.0 0.00 0.35 0.00 86 1014.1
20260903142429 77 195 1.0 4.0 0.00 0.35 0.00 87 1014.1
20260903142229 76 214 0.0 3.0 0.00 0.35 0.00 87 1014.1
20260903142028 76 214 0.0 3.0 0.00 0.35 0.00 87 1014.0
20260903141828 76 214 0.0 3.0 0.00 0.35 0.00 87 1014.0
20260903141628 76 214 1.0 3.0 0.00 0.35 0.00 86 1014.0
20260903141427 76 210 1.0 4.0 0.00 0.35 0.00 87 1014.1
20260903141227 76 184 1.0 4.0 0.00 0.35 0.00 87 1014.1
20260903141027 76 184 0.0 5.0 0.00 0.35 0.00 87 1014.1
20260903140826 75 192 2.0 5.0 0.00 0.35 0.00 87 1014.0
20260903140626 75 209 2.0 5.0 0.00 0.35 0.00 87 1014.0
20260903140426 75 209 2.0 5.0 0.00 0.35 0.00 88 1014.0
20260903140226 76 192 2.0 5.0 0.00 0.35 0.00 88 1013.9
20260903140025 76 189 2.0 5.0 0.00 0.35 0.00 87 1014.0
20260903135825 76 172 1.0 4.0 0.00 0.35 0.00 87 1014.1
20260903135625 76 171 0.0 2.0 0.00 0.35 0.00 87 1014.1
20260903135424 76 171 0.0 1.0 0.00 0.35 0.00 87 1014.1
20260903135224 76 171 0.0 4.0 0.00 0.35 0.00 87 1014.1
20260903135024 75 171 0.0 4.0 0.00 0.35 0.00 87 1014.1
20260903134823 75 171 0.0 4.0 0.00 0.35 0.00 88 1014.2
20260903134623 75 179 0.0 4.0 0.00 0.35 0.00 88 1014.3
20260903134423 75 201 1.0 4.0 0.00 0.35 0.00 88 1014.2
20260903134222 75 212 1.0 3.0 0.00 0.35 0.00 88 1014.2
20260903134022 75 213 1.0 3.0 0.00 0.35 0.00 88 1014.3
20260903133822 75 213 1.0 3.0 0.00 0.35 0.00 88 1014.2
20260903133622 75 213 1.0 2.0 0.00 0.35 0.00 88 1014.3
20260903133421 75 213 0.0 2.0 0.00 0.35 0.00 88 1014.3
20260903133221 75 213 0.0 1.0 0.00 0.35 0.00 88 1014.3
20260903133021 75 213 0.0 1.0 0.00 0.35 0.00 88 1014.3
20260903132820 75 213 0.0 1.0 0.00 0.35 0.00 88 1014.3
20260903132620 75 213 0.0 2.0 0.00 0.35 0.00 88 1014.2
20260903132420 75 213 0.0 2.0 0.00 0.35 0.00 88 1014.2
20260903132219 75 213 0.0 2.0 0.00 0.35 0.00 88 1014.2
20260903132019 75 213 0.0 2.0 0.00 0.35 0.00 88 1014.2
20260903131819 75 213 0.0 2.0 0.00 0.35 0.00 88 1014.3
20260903131618 75 213 0.0 2.0 0.00 0.35 0.00 88 1014.3
20260903131418 75 213 0.0 1.0 0.00 0.35 0.00 88 1014.3
20260903131218 75 213 0.0 1.0 0.00 0.35 0.00 89 1014.4
20260903131017 75 213 0.0 2.0 0.00 0.35 0.00 89 1014.4
20260903130817 75 213 0.0 2.0 0.00 0.35 0.00 89 1014.4
20260903130617 75 213 0.0 2.0 0.00 0.35 0.00 89 1014.3
20260903130417 75 213 0.0 2.0 0.00 0.35 0.00 90 1014.3
20260903130216 75 213 0.0 2.0 0.00 0.35 0.00 90 1014.4
20260903130016 75 213 0.0 2.0 0.00 0.35 0.00 90 1014.4
20260903125816 74 213 0.0 1.0 0.00 0.35 0.00 90 1014.4
20260903125615 74 213 0.0 1.0 0.00 0.35 0.00 90 1014.4
20260903125415 74 213 0.0 1.0 0.00 0.35 0.00 91 1014.4
20260903125215 74 213 0.0 1.0 0.00 0.35 0.00 92 1014.5
20260903125014 74 213 0.0 1.0 0.00 0.35 0.00 93 1014.4
20260903124814 73 213 0.0 1.0 0.00 0.35 0.00 93 1014.4
20260903124614 73 213 0.0 1.0 0.00 0.35 0.00 93 1014.4
20260903124413 73 213 0.0 1.0 0.00 0.35 0.00 94 1014.4
20260903124213 73 213 0.0 1.0 0.00 0.35 0.00 94 1014.5
20260903124013 72 213 0.0 1.0 0.00 0.35 0.00 95 1014.5
20260903123813 72 213 0.0 1.0 0.00 0.35 0.00 96 1014.5
20260903123612 72 213 0.0 1.0 0.00 0.35 0.00 97 1014.5
20260903123412 72 213 0.0 1.0 0.00 0.35 0.00 98 1014.5
20260903123212 71 213 0.0 1.0 0.00 0.35 0.00 99 1014.5
20260903123011 71 213 0.0 1.0 0.00 0.35 0.00 99 1014.5
20260903122811 70 213 0.0 1.0 0.00 0.35 0.00 99 1014.5
20260903122611 70 213 0.0 1.0 0.00 0.35 0.00 99 1014.5
20260903122410 70 213 0.0 1.0 0.00 0.35 0.00 99 1014.5
20260903122210 70 213 0.0 1.0 0.00 0.35 0.00 99 1014.5
20260903122010 69 213 0.0 1.0 0.00 0.35 0.00 99 1014.5
20260903121809 69 0 0.0 1.0 0.00 0.35 0.00 100 1014.5
20260903121609 69 213 0.0 1.0 0.00 0.35 0.00 100 1014.4
20260903121409 69 213 0.0 1.0 0.00 0.35 0.00 100 1014.4
20260903121208 69 213 0.0 1.0 0.00 0.35 0.00 100 1014.4
20260903121008 69 213 0.0 1.0 0.00 0.35 0.00 100 1014.4
20260903120808 69 213 0.0 1.0 0.00 0.35 0.00 100 1014.4
20260903120608 69 213 0.0 1.0 0.00 0.35 0.00 100 1014.4
20260903120407 68 213 0.0 1.0 0.00 0.35 0.00 100 1014.4
20260903120207 68 213 0.0 1.0 0.00 0.35 0.00 100 1014.4
20260903120007 68 213 0.0 1.0 0.00 0.35 0.00 100 1014.5
20260903115806 68 213 0.0 1.0 0.00 0.35 0.00 100 1014.5
20260903115606 68 213 0.0 2.0 0.00 0.35 0.00 100 1014.5
20260903115406 68 213 0.0 2.0 0.00 0.35 0.00 100 1014.5
20260903115205 68 213 0.0 2.0 0.00 0.35 0.00 100 1014.6
20260903115005 68 213 0.0 2.0 0.00 0.35 0.00 100 1014.6
20260903114805 68 213 0.0 1.0 0.00 0.35 0.00 100 1014.5
20260903114604 68 213 0.0 1.0 0.00 0.35 0.00 100 1014.5
20260903114404 68 213 0.0 1.0 0.00 0.35 0.00 100 1014.6
20260903114204 68 213 0.0 1.0 0.00 0.35 0.00 100 1014.6
20260903114004 68 213 0.0 3.0 0.00 0.35 0.00 100 1014.5
20260903113803 68 213 0.0 4.0 0.00 0.35 0.00 100 1014.4
20260903113603 68 213 0.0 4.0 0.00 0.35 0.00 100 1014.4
20260903113403 68 213 0.0 4.0 0.00 0.35 0.00 100 1014.5
20260903113202 68 249 1.0 4.0 0.00 0.35 0.00 100 1014.4
20260903113002 68 245 1.0 3.0 0.00 0.35 0.00 100 1014.5
20260903112802 67 242 0.0 5.0 0.00 0.35 0.00 100 1014.4
20260903112601 67 237 1.0 5.0 0.00 0.35 0.00 100 1014.4
20260903112401 67 199 0.0 5.0 0.00 0.35 0.00 100 1014.4
20260903112201 67 226 1.0 5.0 0.00 0.35 0.00 100 1014.4
20260903112000 67 232 1.0 5.0 0.00 0.35 0.00 100 1014.4
20260903111800 67 223 1.0 5.0 0.00 0.35 0.00 100 1014.3
20260903111600 67 229 2.0 5.0 0.00 0.35 0.00 100 1014.4
20260903111359 67 238 2.0 5.0 0.00 0.35 0.00 100 1014.4
20260903111159 67 250 2.0 5.0 0.00 0.35 0.00 99 1014.4
20260903110959 67 217 2.0 5.0 0.00 0.35 0.00 99 1014.3
20260903110759 67 225 1.0 5.0 0.00 0.35 0.00 99 1014.3
20260903110558 67 241 1.0 5.0 0.00 0.35 0.00 99 1014.3
20260903110358 67 238 1.0 5.0 0.00 0.35 0.00 99 1014.3
20260903110158 67 200 0.0 4.0 0.00 0.35 0.00 99 1014.2
20260903105957 67 215 2.0 4.0 0.00 0.35 0.00 99 1014.3
20260903105757 67 214 1.0 4.0 0.00 0.35 0.00 99 1014.2
20260903105557 67 229 1.0 4.0 0.00 0.35 0.00 99 1014.2
20260903105356 67 237 2.0 4.0 0.00 0.35 0.00 99 1014.1
20260903105156 67 227 2.0 4.0 0.00 0.35 0.00 99 1014.1
20260903104956 67 221 2.0 4.0 0.00 0.35 0.00 99 1014.1
20260903104755 67 214 1.0 4.0 0.00 0.35 0.00 99 1014.1
20260903104555 67 193 1.0 4.0 0.00 0.35 0.00 99 1014.0
20260903104355 67 225 1.0 4.0 0.00 0.35 0.00 99 1013.9
20260903104154 67 202 1.0 4.0 0.00 0.35 0.00 99 1014.0
20260903103954 67 237 1.0 3.0 0.00 0.35 0.00 99 1013.9
20260903103754 67 253 0.0 3.0 0.00 0.35 0.00 99 1013.8
20260903103554 67 253 0.0 3.0 0.00 0.35 0.00 99 1013.8
20260903103353 67 0 0.0 3.0 0.00 0.35 0.00 99 1013.8
20260903103153 67 249 0.0 3.0 0.00 0.35 0.00 99 1013.6
20260903102953 67 235 0.0 3.0 0.00 0.35 0.00 99 1013.6
20260903102752 67 230 1.0 3.0 0.00 0.35 0.00 99 1013.6
20260903102552 67 230 0.0 2.0 0.00 0.35 0.00 99 1013.6
20260903102352 67 230 0.0 2.0 0.00 0.35 0.00 99 1013.6
20260903102151 67 230 0.0 2.0 0.00 0.35 0.00 99 1013.6
20260903101951 67 230 0.0 3.0 0.00 0.35 0.00 99 1013.6
20260903101751 67 230 0.0 3.0 0.00 0.35 0.00 99 1013.5
20260903101551 67 230 1.0 3.0 0.00 0.35 0.00 99 1013.5
20260903101350 67 230 1.0 3.0 0.00 0.35 0.00 99 1013.5
20260903101150 67 230 1.0 3.0 0.00 0.35 0.00 99 1013.5
20260903100949 67 230 1.0 3.0 0.00 0.35 0.00 99 1013.5
20260903100749 67 230 1.0 3.0 0.00 0.35 0.00 99 1013.5
20260903100549 67 231 1.0 3.0 0.00 0.35 0.00 99 1013.5
20260903100349 67 222 1.0 3.0 0.00 0.35 0.00 98 1013.5
20260903100148 67 117 1.0 3.0 0.00 0.35 0.00 98 1013.5
20260903095948 67 108 0.0 2.0 0.00 0.35 0.00 98 1013.5
20260903095748 67 108 0.0 2.0 0.00 0.35 0.00 98 1013.4
20260903095547 67 108 0.0 2.0 0.00 0.35 0.00 98 1013.3
20260903095347 67 108 0.0 1.0 0.00 0.35 0.00 98 1013.4
20260903095147 67 0 0.0 1.0 0.00 0.35 0.00 98 1013.4
20260903094946 67 108 0.0 1.0 0.00 0.35 0.00 98 1013.3
20260903094746 67 108 0.0 2.0 0.00 0.35 0.00 98 1013.2
20260903094546 67 108 0.0 2.0 0.00 0.35 0.00 98 1013.2
20260903094345 67 108 0.0 2.0 0.00 0.35 0.00 98 1013.2
20260903094145 67 108 0.0 2.0 0.00 0.35 0.00 98 1013.2
20260903093945 67 108 0.0 2.0 0.00 0.35 0.00 98 1013.1
20260903093745 67 108 0.0 1.0 0.00 0.35 0.00 98 1013.2
20260903093544 67 108 0.0 1.0 0.00 0.35 0.00 98 1013.2
20260903093344 67 108 0.0 1.0 0.00 0.35 0.00 98 1013.2
20260903093144 67 108 0.0 1.0 0.00 0.35 0.00 98 1013.1
20260903092943 67 108 0.0 1.0 0.00 0.35 0.00 98 1013.0
20260903092743 67 108 0.0 1.0 0.00 0.35 0.00 98 1013.0
20260903092543 67 108 0.0 1.0 0.00 0.35 0.00 98 1013.0
20260903092342 68 108 0.0 1.0 0.00 0.35 0.00 98 1013.0
20260903092142 68 108 0.0 1.0 0.00 0.35 0.00 98 1013.0
20260903091942 68 108 0.0 1.0 0.00 0.35 0.00 98 1013.0
20260903091741 68 108 0.0 1.0 0.00 0.35 0.00 98 1013.0
20260903091541 68 108 0.0 1.0 0.00 0.35 0.00 98 1013.0
20260903091341 68 108 0.0 1.0 0.00 0.35 0.00 98 1013.0
20260903091140 68 108 0.0 1.0 0.00 0.35 0.00 98 1013.1
20260903090940 68 108 0.0 1.0 0.00 0.35 0.00 98 1013.0
20260903090740 68 108 0.0 0.0 0.00 0.35 0.00 98 1013.0
20260903090540 68 0 0.0 0.0 0.00 0.35 0.00 98 1013.0
20260903090339 68 108 0.0 2.0 0.00 0.35 0.00 98 1013.0
20260903090139 68 108 0.0 2.0 0.00 0.35 0.00 98 1012.9
20260903085939 68 0 0.0 2.0 0.00 0.35 0.00 98 1013.0
20260903085738 68 108 0.0 3.0 0.00 0.35 0.00 98 1013.1
20260903085538 68 108 0.0 3.0 0.00 0.35 0.00 98 1013.0
20260903085338 68 108 0.0 3.0 0.00 0.35 0.00 98 1013.1
20260903085137 68 108 0.0 3.0 0.00 0.35 0.00 98 1013.0
20260903084937 68 111 0.0 3.0 0.00 0.35 0.00 98 1013.0
20260903084737 68 114 0.0 3.0 0.00 0.35 0.00 98 1013.0
20260903084536 68 133 0.0 3.0 0.00 0.35 0.00 98 1013.0
20260903084336 68 220 0.0 3.0 0.00 0.35 0.00 98 1012.9
20260903084136 68 220 0.0 2.0 0.00 0.35 0.00 98 1013.0
20260903083935 68 220 0.0 2.0 0.00 0.35 0.00 98 1013.0
20260903083735 68 153 0.0 2.0 0.00 0.35 0.00 98 1013.1
20260903083535 68 122 0.0 2.0 0.00 0.35 0.00 98 1013.0
20260903083335 68 122 0.0 2.0 0.00 0.35 0.00 98 1012.9
20260903083134 68 122 0.0 2.0 0.00 0.35 0.00 98 1012.9
20260903082934 68 122 0.0 3.0 0.00 0.35 0.00 98 1012.9
20260903082734 68 119 0.0 3.0 0.00 0.35 0.00 98 1013.0
20260903082533 68 29 0.0 3.0 0.00 0.35 0.00 98 1013.0
20260903082333 68 23 1.0 3.0 0.00 0.35 0.00 98 1012.9
20260903082133 68 42 0.0 4.0 0.00 0.35 0.00 98 1012.8
20260903081932 68 2 0.0 4.0 0.00 0.35 0.00 98 1012.8
20260903081732 68 345 0.0 4.0 0.00 0.35 0.00 98 1012.9
20260903081532 69 10 0.0 4.0 0.00 0.35 0.00 98 1013.0
20260903081331 69 16 1.0 4.0 0.00 0.35 0.00 98 1013.0
20260903081131 69 38 1.0 4.0 0.00 0.35 0.00 98 1013.1
20260903080931 69 70 0.0 4.0 0.00 0.35 0.00 98 1013.0
20260903080731 69 68 0.0 2.0 0.00 0.35 0.00 98 1013.0
20260903080530 69 68 0.0 2.0 0.00 0.35 0.00 98 1013.0
20260903080330 69 68 0.0 2.0 0.00 0.35 0.00 98 1013.0
20260903080130 69 68 0.0 2.0 0.00 0.35 0.00 98 1012.9
20260903075929 69 68 0.0 2.0 0.00 0.35 0.00 98 1012.9
20260903075729 69 68 0.0 2.0 0.00 0.35 0.00 98 1012.9
20260903075529 69 69 0.0 2.0 0.00 0.35 0.00 98 1012.9
20260903075328 69 69 0.0 2.0 0.00 0.35 0.00 98 1013.0
20260903075128 69 69 0.0 3.0 0.00 0.35 0.00 98 1013.0
20260903074928 70 70 0.0 4.0 0.00 0.35 0.00 98 1012.9
20260903074727 70 73 0.0 4.0 0.00 0.35 0.00 98 1012.9
20260903074527 70 80 0.0 4.0 0.00 0.35 0.00 98 1012.9
20260903074327 70 52 1.0 4.0 0.00 0.35 0.00 98 1012.9
20260903074126 70 32 1.0 4.0 0.00 0.35 0.00 98 1012.9
20260903073926 70 32 0.0 3.0 0.00 0.35 0.00 98 1012.8
20260903073726 70 36 1.0 3.0 0.00 0.35 0.00 98 1012.9
20260903073525 70 30 1.0 3.0 0.00 0.35 0.00 98 1012.9
20260903073325 70 22 0.0 3.0 0.00 0.35 0.00 98 1012.8
20260903073125 70 19 0.0 2.0 0.00 0.35 0.00 98 1012.8
20260903072925 70 19 0.0 2.0 0.00 0.35 0.00 98 1012.8
20260903072724 70 19 0.0 2.0 0.00 0.35 0.00 98 1012.8
20260903072524 70 70 0.0 3.0 0.00 0.35 0.00 98 1012.8
20260903072324 70 112 0.0 4.0 0.00 0.35 0.00 98 1012.8
20260903072123 70 63 0.0 4.0 0.00 0.35 0.00 98 1012.8
20260903071923 70 20 0.0 4.0 0.00 0.35 0.00 98 1012.7
20260903071723 70 16 1.0 4.0 0.00 0.35 0.00 98 1012.8
20260903071522 70 7 0.0 2.0 0.00 0.35 0.00 98 1012.9
20260903071322 70 7 0.0 2.0 0.00 0.35 0.00 98 1012.9
20260903071122 70 357 0.0 2.0 0.00 0.35 0.00 98 1012.9
20260903070921 70 349 0.0 2.0 0.00 0.35 0.00 98 1012.9
20260903070721 70 73 0.0 2.0 0.00 0.35 0.00 98 1012.9
20260903070521 70 125 0.0 2.0 0.00 0.35 0.00 98 1012.9
20260903070320 70 125 0.0 2.0 0.00 0.35 0.00 98 1012.9
20260903070120 70 125 0.0 1.0 0.00 0.35 0.00 98 1012.9
20260903065920 70 126 0.0 3.0 0.00 0.35 0.00 98 1012.8
20260903065720 70 127 0.0 3.0 0.00 0.35 0.00 98 1012.8
20260903065519 70 128 0.0 3.0 0.00 0.35 0.00 98 1012.8
20260903065319 70 128 0.0 3.0 0.00 0.35 0.00 98 1012.8
20260903065119 70 65 1.0 3.0 0.00 0.35 0.00 98 1012.7
20260903064918 70 66 1.0 3.0 0.00 0.35 0.00 98 1012.7
20260903064718 70 115 0.0 2.0 0.00 0.35 0.00 98 1012.7
20260903064518 70 116 0.0 3.0 0.00 0.35 0.00 98 1012.7
20260903064317 70 136 0.0 4.0 0.00 0.35 0.00 98 1012.7
20260903064117 70 255 0.0 4.0 0.00 0.35 0.00 98 1012.7
20260903063917 70 262 0.0 4.0 0.00 0.35 0.00 98 1012.7
20260903063716 70 226 1.0 4.0 0.00 0.35 0.00 98 1012.8
20260903063516 70 238 1.0 4.0 0.00 0.35 0.00 98 1012.8
20260903063316 70 235 1.0 4.0 0.00 0.35 0.00 98 1012.7
20260903063116 70 232 1.0 4.0 0.00 0.35 0.00 98 1012.7
20260903062915 70 200 1.0 4.0 0.00 0.35 0.00 99 1012.8
20260903062715 70 130 1.0 4.0 0.00 0.35 0.00 99 1012.7
20260903062515 70 273 1.0 4.0 0.00 0.35 0.00 99 1012.7
20260903062314 70 309 1.0 4.0 0.00 0.35 0.00 99 1012.6
20260903062114 70 234 1.0 4.0 0.00 0.35 0.00 99 1012.7
20260903061914 70 248 1.0 4.0 0.00 0.35 0.00 99 1012.7
20260903061713 70 277 0.0 5.0 0.00 0.35 0.00 99 1012.7
20260903061513 70 212 1.0 5.0 0.00 0.35 0.00 99 1012.7
20260903061313 70 112 1.0 5.0 0.00 0.35 0.00 99 1012.7
20260903061112 70 221 2.0 5.0 0.00 0.35 0.00 99 1012.7
20260903060912 70 254 2.0 5.0 0.00 0.35 0.00 99 1012.7
20260903060712 70 240 2.0 5.0 0.00 0.35 0.00 99 1012.6
20260903060512 70 245 1.0 5.0 0.00 0.35 0.00 99 1012.7
20260903060311 70 234 1.0 5.0 0.00 0.35 0.00 99 1012.7
20260903060111 70 69 1.0 4.0 0.00 0.35 0.00 99 1012.6
20260903055911 70 183 1.0 4.0 0.00 0.35 0.00 99 1012.7
20260903003217 68 209 2.0 6.0 0.05 0.34 0.34 98 1012.9
20260903003016 68 174 2.0 6.0 0.05 0.34 0.34 98 1012.9
20260903002816 68 204 1.0 4.0 0.05 0.34 0.34 98 1012.9
20260903002616 68 239 1.0 4.0 0.05 0.34 0.34 97 1013.0
20260903002415 68 240 1.0 4.0 0.05 0.34 0.34 97 1012.8
20260903002215 68 235 0.0 3.0 0.05 0.34 0.34 97 1012.4
20260903002015 69 210 0.0 3.0 0.03 0.32 0.32 97 1012.2
20260903001815 68 298 0.0 3.0 0.00 0.29 0.29 97 1012.5
20260903001614 68 276 1.0 3.0 0.00 0.29 0.29 97 1012.3
20260903001414 68 239 1.0 3.0 0.00 0.29 0.29 97 1011.7
20260903001214 68 235 0.0 3.0 0.00 0.29 0.29 96 1011.9
20260903001013 68 215 1.0 4.0 0.00 0.29 0.29 96 1012.2
20260903000813 68 228 0.0 4.0 0.00 0.29 0.29 96 1012.5
20260903000613 68 249 0.0 4.0 0.00 0.29 0.29 96 1012.6
20260903000412 68 238 1.0 4.0 0.00 0.29 0.29 96 1012.6
20260903000212 68 224 1.0 3.0 0.00 0.29 0.29 96 1012.7
20260903000012 68 248 1.0 4.0 0.00 0.29 0.29 96 1012.7
20260902235811 68 266 0.0 4.0 0.00 0.29 0.29 96 1012.8
20260902235611 68 73 0.0 4.0 0.00 0.29 0.29 97 1012.8
20260902235411 68 194 1.0 4.0 0.01 0.29 0.29 97 1012.7
20260902235210 68 262 0.0 4.0 0.01 0.29 0.29 97 1012.7
20260902235010 68 250 0.0 3.0 0.01 0.29 0.29 97 1012.7
20260902234810 68 229 0.0 4.0 0.01 0.29 0.29 97 1012.6
20260902234610 68 237 1.0 4.0 0.02 0.29 0.29 97 1012.6
20260902234409 68 237 1.0 6.0 0.02 0.29 0.29 97 1012.5
20260902234209 68 224 1.0 6.0 0.02 0.29 0.29 97 1012.6
20260902234009 68 178 1.0 6.0 0.02 0.29 0.29 97 1012.6
20260902233808 68 201 1.0 6.0 0.02 0.29 0.29 97 1012.6
20260902233608 68 197 2.0 6.0 0.02 0.29 0.29 97 1012.6
20260902233408 68 217 2.0 5.0 0.02 0.29 0.29 98 1012.6